RH
6 6 5 5 5 5 5 6 7 7 7 7 9 9 9 10 10 10 10 10 9 9 9 9 9 9 9 8 8 8 7 6 5 5 5 6 7 7 7 7 6 6 6 6 6 7 8 9 9 10 10 10 10 11 12 13 11 13 19 20 18 21 20 21 25 25 25 26 26 25 23 24 25 25 25 26 26 26 27 26 27 27 28 29 30 31 32 33
6 6 5 5 5 6 6 6 6 7 7 8 9 9 10 10 10 11 11 11 11 11 11 10 9 9 8 8 7 7 7 6 5 4 6 7 7 7 7 6 6 6 6 6 7 7 9 10 10 11 10 10 11 12 13 13 12 16 22 19 17 21 20 20 24 23 24 24 26 25 24 24 23 24 25 26 27 27 28 27 27 28 28 30 30 31 32 33
7 7 7 6 6 6 6 6 7 7 8 9 10 11 11 11 11 11 11 11 12 13 13 11 9 9 8 7 7 7 6 6 5 5 6 7 6 6 6 6 6 6 6 7 8 9 10 11 11 11 10 11 12 12 13 14 14 15 19 19 18 20 20 20 22 22 23 24 26 26 25 24 23 24 25 26 27 28 29 27 27 28 29 30 31 32 32 33
8 8 7 7 7 7 8 8 9 9 10 11 12 13 13 13 13 13 12 12 13 14 13 12 10 9 8 6 7 6 6 5 6 6 6 6 6 6 5 6 6 6 7 8 9 10 11 11 11 10 10 11 12 12 15 16 15 16 20 22 19 19 21 21 21 22 23 23 25 26 25 25 24 25 26 25 27 28 28 26 27 28 29 30 31 32 33 33
8 8 7 7 8 9 10 11 11 10 11 12 13 14 15 15 15 15 15 13 14 14 13 12 10 9 7 6 7 6 7 8 7 6 6 5 6 6 6 7 7 8 9 10 10 10 11 11 10 9 10 13 14 14 16 17 16 19 22 22 20 20 21 21 22 23 23 23 24 25 25 24 24 25 25 25 27 27 26 25 26 27 28 30 31 32 33 34
8 8 8 9 10 11 12 13 12 12 12 13 15 16 17 17 17 17 16 15 15 14 12 11 10 8 7 7 7 6 9 10 7 6 6 6 6 7 7 8 9 9 10 11 10 10 11 10 10 10 12 16 18 18 17 17 17 20 22 22 21 20 22 23 24 23 23 22 23 25 25 24 24 25 25 25 25 24 23 24 25 27 29 30 32 33 34 35
9 9 10 11 11 12 13 14 15 15 15 16 17 18 19 18 18 17 17 16 16 14 12 12 11 9 8 7 7 7 8 9 7 7 7 6 7 8 9 9 10 11 11 11 10 10 10 10 11 12 16 18 18 18 18 17 16 20 23 22 21 21 22 23 23 24 22 21 22 23 23 23 24 25 25 25 24 23 23 24 26 27 29 31 33 34 35 36
11 11 12 12 13 14 15 17 17 18 18 19 20 19 19 18 18 18 18 17 16 14 13 12 13 11 9 7 6 6 8 9 7 7 7 8 9 9 10 11 11 11 11 11 10 10 9 11 12 12 17 19 16 17 18 16 17 23 24 20 21 21 22 23 23 24 23 22 22 22 22 22 23 24 25 24 22 23 24 25 27 29 31 32 33 33 35 36
13 13 13 14 15 16 18 19 20 21 21 22 22 20 19 18 18 18 18 17 16 15 14 14 14 12 10 8 6 7 10 11 10 9 9 10 11 12 13 13 13 12 11 10 10 10 10 12 12 12 16 17 17 18 18 16 17 21 21 19 20 21 21 23 23 23 22 22 22 23 22 22 22 24 25 23 22 24 25 26 28 30 31 31 32 33 34 35
14 15 16 17 19 20 22 23 24 24 25 24 23 21 19 18 18 18 18 18 17 16 15 15 15 13 12 10 9 11 13 13 13 13 13 13 14 13 13 13 13 13 12 11 11 12 11 12 12 12 13 16 17 19 19 18 19 19 19 19 20 21 21 22 22 22 22 22 22 24 24 23 24 26 26 23 22 24 25 27 28 29 30 31 32 32 33 35
20 21 23 24 25 26 26 26 26 26 25 25 23 22 20 20 19 18 19 19 18 17 16 15 15 14 13 12 13 16 16 16 16 16 16 15 14 14 14 13 13 13 13 12 12 12 11 12 13 12 14 16 17 19 19 19 19 18 18 19 20 20 20 21 22 22 22 22 22 24 24 24 25 27 26 22 22 24 25 26 27 28 29 29 31 32 33 34
26 27 27 27 26 26 26 26 26 25 25 24 23 22 22 21 20 19 19 20 20 19 18 17 17 16 15 15 18 19 18 18 18 17 16 15 15 14 14 14 13 13 12 12 12 12 12 13 12 13 15 16 18 18 18 19 18 16 18 22 23 24 22 21 22 22 22 22 22 23 25 26 27 26 23 21 22 24 24 25 25 26 27 28 29 30 32 34
27 26 26 25 26 25 25 25 25 24 23 23 23 23 22 22 21 21 21 21 21 20 19 19 18 18 17 19 20 20 19 19 18 17 16 15 15 15 14 14 13 12 12 11 12 12 12 13 12 13 14 15 18 17 16 17 16 17 20 24 26 26 23 21 21 23 22 23 23 23 26 26 27 24 20 21 22 23 23 24 23 24 24 25 27 28 30 32
25 25 25 25 24 24 24 23 23 23 23 23 22 23 23 22 22 22 21 21 21 20 20 19 19 19 18 20 21 20 20 19 18 18 17 15 14 14 13 13 13 12 12 11 12 12 12 12 11 12 14 15 17 16 19 20 19 22 21 25 29 23 22 23 22 22 22 23 23 23 26 25 23 22 19 20 21 21 22 22 22 22 22 23 24 26 27 29
23 24 24 23 22 22 22 22 22 22 21 21 21 21 22 22 22 21 21 20 20 20 19 19 19 18 19 20 20 20 19 18 18 17 16 15 14 13 13 13 12 12 12 11 11 11 11 11 11 14 14 15 16 18 24 25 26 29 22 23 29 23 24 27 22 22 22 23 23 23 26 25 23 21 19 20 20 20 21 20 20 21 21 22 22 23 24 26
22 22 23 22 21 21 21 21 21 20 20 20 20 20 20 20 20 19 19 19 19 19 18 18 18 18 19 19 18 18 18 17 17 16 15 14 13 13 13 13 13 13 12 13 12 11 10 10 13 16 15 16 20 24 27 26 28 30 24 23 26 25 26 26 23 25 25 23 24 24 25 25 22 20 18 19 19 20 21 21 21 20 20 21 21 22 23 24
20 21 21 21 20 20 20 19 19 19 19 18 18 18 18 18 18 17 17 17 17 17 17 17 16 16 17 16 17 16 16 16 15 14 14 14 13 13 13 13 13 13 13 12 12 12 11 12 16 16 17 21 26 29 26 22 23 25 25 25 24 25 25 24 25 26 27 25 24 25 25 22 20 19 19 19 19 21 22 21 21 21 21 21 21 22 22 23
19 20 21 20 20 19 19 19 19 18 18 18 18 18 18 18 18 17 17 17 16 16 16 16 15 16 16 15 16 15 15 15 14 14 13 13 13 12 12 12 12 12 12 12 11 12 12 13 17 18 22 24 26 30 25 20 22 22 23 23 22 25 26 26 27 26 28 27 26 27 26 22 21 20 20 20 21 22 21 21 21 20 20 20 21 22 22 22
18 19 20 20 19 18 18 18 18 17 18 18 17 17 17 17 17 17 16 16 16 16 17 16 15 17 16 14 15 14 13 13 13 13 13 13 12 12 12 12 11 11 11 12 12 13 13 15 19 21 23 24 24 27 23 21 24 23 24 23 22 24 25 28 29 28 30 28 28 28 25 23 22 21 21 20 21 21 21 21 20 19 19 19 19 20 21 21
17 17 18 19 19 19 18 17 17 17 17 17 16 16 16 16 17 17 16 15 15 15 16 15 14 14 14 13 13 13 13 13 12 12 12 12 11 11 12 11 11 11 14 16 15 14 15 20 23 22 23 25 26 27 26 26 27 26 26 25 25 25 25 27 28 28 29 27 28 29 26 25 23 22 22 20 21 21 21 21 20 18 18 18 18 19 19 20
16 16 17 18 18 19 18 18 18 17 17 16 16 16 16 15 17 17 15 15 14 14 13 13 13 13 12 13 13 12 12 12 12 12 12 11 11 11 11 12 13 14 16 18 16 15 17 20 22 22 25 26 27 29 29 28 28 27 25 24 26 26 26 26 26 29 29 26 28 30 27 24 22 21 20 19 22 21 20 21 19 18 18 18 18 18 19 20
16 15 16 17 18 18 18 18 17 16 16 16 16 16 15 15 15 14 14 14 13 13 13 12 12 12 12 12 12 12 12 12 11 11 11 11 11 11 10 14 16 16 19 18 16 19 20 20 20 22 25 26 28 30 28 27 28 27 26 23 24 25 26 26 26 29 30 25 27 30 25 21 19 19 19 19 21 20 19 19 19 18 18 18 18 18 18 20
15 15 15 16 17 17 17 17 17 16 16 15 15 15 14 14 13 13 13 13 13 12 12 12 12 12 12 12 12 11 11 12 12 11 12 11 10 12 11 15 21 20 20 20 18 20 19 18 21 23 23 24 25 26 25 24 25 25 24 21 23 25 24 25 26 27 28 26 27 28 25 21 19 19 20 20 20 20 19 18 18 18 17 17 17 18 18 19
15 15 15 15 16 16 16 17 16 16 16 15 15 15 14 14 14 14 12 13 14 13 13 12 12 12 12 12 12 12 12 12 13 12 12 13 12 14 13 16 23 22 20 22 21 20 18 16 21 24 24 24 23 23 23 21 21 25 25 22 24 26 23 24 26 26 26 26 27 26 23 21 21 20 20 20 21 20 18 18 17 17 16 16 17 17 17 19
15 14 14 15 15 15 15 16 16 16 15 15 15 15 15 14 14 14 14 15 15 13 14 13 13 13 12 13 12 13 12 12 13 12 12 14 14 15 15 15 19 19 20 23 20 18 18 18 22 23 25 26 23 22 23 22 21 23 24 22 23 24 24 25 25 25 24 23 24 25 22 21 22 20 18 20 23 21 19 20 17 15 15 15 16 17 17 19
14 14 14 14 14 15 15 15 16 15 15 16 15 15 15 15 16 14 16 22 18 13 15 14 14 14 13 13 14 14 14 13 13 13 13 13 13 15 15 16 16 17 22 23 19 17 18 21 23 23 25 27 24 21 22 24 23 19 20 24 24 24 24 25 24 23 23 22 23 27 25 22 19 16 17 22 25 23 20 21 18 14 15 15 16 17 17 19
13 13 13 14 14 14 15 15 15 15 15 15 15 15 15 15 16 13 16 24 21 13 14 14 13 14 14 13 14 15 14 14 13 13 13 14 14 14 14 17 16 17 22 21 17 16 18 22 22 24 26 25 23 20 21 25 23 18 21 25 26 23 23 25 24 23 25 24 25 28 26 26 23 16 20 24 22 21 20 21 19 15 14 15 15 17 18 19
13 13 13 13 14 14 14 14 14 14 14 14 14 15 14 15 15 14 18 21 17 14 14 14 13 13 14 13 13 14 13 13 13 12 13 13 14 14 15 17 17 19 22 19 15 13 16 20 19 22 24 22 20 20 23 25 21 20 26 27 25 24 25 27 26 27 31 26 24 27 26 28 28 19 21 24 19 19 21 21 21 17 14 15 16 17 18 18
13 13 12 13 13 13 13 13 13 13 13 14 13 14 14 14 13 14 20 20 14 14 15 13 14 13 13 14 13 13 13 13 13 12 12 13 13 13 17 18 17 21 21 19 18 16 17 19 18 20 21 19 20 24 25 24 21 23 27 26 26 28 27 27 28 28 30 27 24 26 26 28 28 19 19 21 18 22 24 23 24 18 15 16 16 17 18 19
13 13 12 12 12 12 12 12 12 12 12 13 12 14 14 14 18 18 18 17 13 13 14 14 15 15 15 16 14 14 15 14 14 12 11 12 12 12 15 16 16 20 23 21 19 18 19 21 21 21 19 18 22 26 27 25 24 25 25 25 25 26 26 28 31 28 26 29 28 27 28 30 28 20 17 19 21 23 22 22 23 19 17 17 17 17 18 19
13 13 12 12 12 12 12 12 12 12 13 13 12 14 13 16 27 26 16 14 15 14 16 17 18 20 22 20 16 17 18 16 14 15 15 15 15 14 16 16 15 21 27 23 16 16 19 20 21 21 19 19 22 23 24 25 26 25 26 25 21 21 20 22 28 26 24 29 29 29 32 33 30 22 17 21 24 24 21 20 21 20 18 17 18 18 18 18
13 13 13 13 12 12 13 12 13 13 13 14 13 15 17 19 22 22 17 16 15 16 18 19 20 24 25 23 20 21 21 18 17 20 22 22 22 20 20 20 18 19 23 21 16 17 18 18 20 20 19 20 19 19 21 24 25 25 26 25 23 26 25 25 30 28 26 26 25 31 34 30 27 20 16 21 22 23 24 21 20 19 17 16 17 17 17 18
14 14 13 13 12 12 13 13 14 14 13 15 14 16 24 25 16 16 21 19 16 17 20 21 23 25 23 21 20 22 21 18 19 22 22 24 25 22 22 25 22 17 17 17 16 16 17 18 19 18 18 19 18 17 17 20 21 22 25 25 25 32 32 34 40 31 24 25 24 30 33 27 22 17 17 21 19 19 20 18 18 17 16 16 16 16 17 17
15 15 14 13 13 13 13 13 13 14 14 14 14 17 21 20 16 17 20 19 19 20 21 22 23 20 19 18 19 22 19 16 19 21 21 22 23 22 22 24 23 21 20 17 16 16 15 13 15 16 17 18 19 18 18 20 21 23 27 24 24 29 25 27 36 30 25 31 30 29 29 26 20 15 16 19 17 17 17 17 18 16 16 17 16 17 16 17
16 16 15 15 15 14 14 14 14 14 14 13 18 22 18 14 16 19 18 19 21 20 19 22 20 17 17 18 20 21 18 16 19 20 20 20 19 20 21 21 22 23 20 15 15 18 15 10 15 19 19 20 21 21 22 21 21 24 28 25 24 29 26 25 33 33 34 42 41 34 28 24 19 16 18 20 19 18 17 17 18 16 17 18 16 16 16 17
16 16 16 16 15 15 15 15 15 15 14 17 23 23 18 16 17 18 20 20 21 19 17 20 20 17 17 19 21 22 19 17 19 18 18 20 19 20 22 22 23 22 18 16 16 17 14 12 18 21 20 22 22 21 22 19 18 22 24 25 26 29 32 31 31 34 40 42 37 30 25 21 18 18 21 22 21 21 20 18 16 16 16 17 16 16 17 18
16 16 16 16 16 16 17 16 17 16 14 20 26 21 18 20 19 20 23 21 21 21 18 17 18 17 17 18 20 22 20 17 18 17 16 18 18 19 23 23 22 22 21 19 16 15 15 14 18 21 19 20 22 21 21 20 21 23 21 25 28 27 32 33 30 36 43 40 30 25 26 25 20 19 21 21 20 20 21 19 18 17 16 16 17 17 17 18
16 17 16 17 16 17 17 17 18 17 15 22 27 23 21 22 21 23 25 21 22 23 19 17 16 17 19 18 17 21 21 17 18 19 16 16 17 18 23 22 20 23 23 20 17 16 17 16 17 21 21 21 21 19 20 21 21 22 21 23 26 26 28 30 31 33 34 35 33 28 28 27 24 22 20 19 18 17 17 19 19 19 17 17 17 16 17 17
16 16 16 17 16 16 17 17 16 16 18 24 27 25 23 24 23 24 24 23 23 21 18 18 17 17 19 18 16 19 21 17 17 19 16 15 16 17 20 20 19 22 22 20 20 19 18 16 15 19 20 20 18 17 19 22 21 22 23 26 28 31 32 30 31 32 31 37 39 34 28 22 21 25 22 17 17 16 16 18 19 20 18 18 17 16 16 17
14 15 15 15 15 16 16 15 15 18 21 24 26 25 24 23 23 23 23 23 22 19 18 19 18 17 17 18 17 18 22 21 18 17 15 16 16 16 19 20 18 20 21 20 21 20 18 16 15 18 18 16 16 17 19 22 26 26 26 29 31 33 33 30 30 34 36 41 46 45 33 16 13 23 21 15 16 17 18 19 19 20 18 17 18 17 17 17
12 13 13 12 13 13 13 14 18 23 26 25 24 25 23 21 21 22 22 22 21 19 18 19 19 18 17 18 16 17 22 23 21 18 16 16 15 13 18 22 20 20 20 19 20 20 18 18 19 19 17 14 15 19 22 23 27 29 27 30 33 33 33 30 31 36 38 39 42 46 38 17 12 20 18 15 18 18 19 21 21 21 19 18 18 18 18 18
10 11 11 9 10 10 10 15 20 23 25 24 21 22 22 20 19 20 20 19 20 19 18 20 21 20 19 18 17 20 20 20 20 17 14 14 13 13 19 24 23 21 21 20 20 21 20 21 23 20 17 15 16 20 25 25 26 27 27 29 32 34 33 30 31 35 38 38 39 46 46 25 13 19 19 17 20 19 19 22 22 21 19 18 18 18 18 18
9 10 8 7 9 8 8 13 17 20 22 21 19 20 20 19 18 18 19 18 19 19 18 19 20 18 18 19 19 19 17 16 17 15 13 16 17 19 24 25 23 23 21 21 21 21 22 23 22 20 17 17 17 20 24 25 25 26 27 30 30 31 33 34 35 36 36 39 42 51 50 26 12 22 23 18 20 19 19 22 21 20 19 19 19 19 18 18
8 8 8 8 8 7 10 13 16 20 22 19 18 20 18 18 19 19 19 19 20 20 19 20 19 17 19 22 21 18 16 15 15 15 16 19 21 23 25 24 24 25 23 22 22 20 20 23 22 19 18 18 19 20 22 23 25 25 28 33 32 31 35 37 37 37 37 35 37 45 44 22 12 21 20 16 19 18 17 20 20 20 21 20 20 20 19 19
7 8 8 7 7 7 11 13 16 22 23 19 19 21 18 18 19 18 19 19 21 20 19 19 19 19 22 24 21 21 20 15 14 17 19 20 22 24 25 24 24 25 24 24 23 20 19 22 21 19 20 21 21 21 20 21 23 24 27 33 33 33 34 33 33 37 37 36 35 38 35 20 12 15 14 14 18 17 16 18 18 20 22 22 23 22 21 20
7 8 9 9 7 7 10 10 11 17 20 18 17 17 16 15 16 16 17 18 18 18 18 19 18 19 20 20 19 21 23 19 17 19 20 20 20 23 25 26 25 24 25 25 24 23 24 24 22 22 22 21 20 19 19 22 22 20 22 27 30 33 33 33 37 38 35 37 36 29 27 24 18 16 16 16 16 17 16 17 18 20 20 22 24 23 22 22
8 10 12 11 8 7 10 10 9 12 14 14 13 12 13 15 13 13 14 15 16 17 17 17 17 15 14 14 14 16 19 21 19 18 19 21 22 22 24 27 26 25 26 26 24 25 26 25 25 26 24 22 22 21 21 24 23 20 21 22 25 33 34 32 34 31 29 36 33 21 23 27 22 17 18 18 18 18 18 18 19 21 21 22 23 23 23 23
8 9 10 10 8 9 12 10 10 12 11 14 17 14 13 14 11 10 12 13 14 14 13 13 14 15 15 13 12 12 14 17 17 17 17 19 22 21 21 25 28 27 26 26 25 24 26 25 26 27 25 23 24 23 22 24 25 24 24 22 23 31 34 30 27 26 28 32 27 20 23 26 21 19 20 19 20 20 21 21 22 23 23 24 24 24 24 24
7 8 7 7 8 10 11 10 10 11 11 15 18 14 13 12 9 10 12 11 12 13 11 10 10 15 21 19 13 12 14 14 14 15 16 16 18 19 17 19 25 26 25 26 26 23 24 28 30 29 26 22 22 24 25 27 29 26 23 22 24 28 30 28 26 26 28 28 24 23 26 24 21 23 23 21 21 23 23 23 23 23 24 25 25 26 26 26
5 6 5 6 7 8 10 9 9 11 13 13 13 11 13 13 10 12 14 11 10 11 12 11 11 16 24 22 15 14 14 13 13 14 16 16 18 20 18 17 21 26 27 28 30 25 22 28 33 31 26 21 21 25 27 28 30 26 20 21 24 25 28 30 29 29 31 30 28 29 31 29 25 25 24 23 22 23 24 23 23 23 25 26 27 28 28 28
4 4 4 6 8 9 8 7 9 14 16 13 11 11 13 13 13 14 15 13 11 11 13 14 13 17 23 21 17 18 17 16 16 18 18 19 20 21 19 17 20 26 29 32 32 28 27 32 37 36 31 24 24 28 28 26 26 25 23 23 24 27 31 33 32 32 32 31 31 32 34 31 27 25 25 24 22 23 24 24 25 26 26 27 28 29 29 28
3 4 3 5 7 8 7 7 9 12 12 10 11 13 12 13 16 15 12 12 14 14 15 15 14 16 19 17 15 17 17 16 18 20 21 22 23 23 22 21 21 25 31 35 36 35 36 37 39 42 39 33 32 33 32 27 24 24 25 25 25 29 32 32 32 32 32 31 31 33 33 30 28 28 29 27 24 24 24 25 28 29 28 27 27 28 29 30